Weather History for KBUR - March, 2014

Change the Weather History Date:

Sunday, March 9, 2014

  Actual Average Record
Temperature  
Mean Temperature 70 °F 58 °F  
Max Temperature 84 °F 70 °F 88 °F (1944)
Min Temperature 55 °F 46 °F 35 °F (1974)
Degree Days  
Heating Degree Days 0 7  
Month to date heating degree days 35 70  
Since 1 July heating degree days 512 1211  
Cooling Degree Days 5 0  
Month to date cooling degree days 6 0  
Year to date cooling degree days 66 6  
Growing Degree Days 18 (Base 50)    
Moisture  
Dew Point 22 °F    
Average Humidity 24    
Maximum Humidity 39    
Minimum Humidity 8    
Precipitation  
Precipitation 0.00 in 0.11 in 0.31 in (1957)
Month to date precipitation 0.79 1.16  
Year to date precipitation 4.85 9.17  
Since 1 July precipitation 5.28  
Sea Level Pressure  
Sea Level Pressure 30.08 in    
Wind  
Wind Speed 5 mph (West)    
Max Wind Speed 14 mph    
Max Gust Speed 21 mph    
Visibility 10 miles    
Events      
T = Trace of Precipitation, MM = Missing Value Source: NWS Daily Summary

Daily Weather History Graph

Daily Weather History Graph

Search for Another Location

Airport or City:

Trip Planner

Search our weather history database for the weather conditions in past years. The results will help you decide how hot, cold, wet, or windy it might be!

Date:

Astronomy

Mar. 09, 2014 Rise Set
Actual Time 7:11 AM PDT 6:56 PM PDT
Civil Twilight 6:46 AM PDT 7:21 PM PDT
Nautical Twilight 6:17 AM PDT 7:50 PM PDT
Astronomical Twilight 5:48 AM PDT 8:19 PM PDT
Moon 1:04 PM PDT (3/9) 3:30 AM PDT (3/9)
Length of Visible Light 12h 34m
Length of Day
11h 44m
First Quarter, 62% of the Moon is Illuminated
Mar 9
First Quarter
Mar 16
Full
Mar 23
Last Quarter
Mar 30
New
Apr 7
First Quarter

Hourly Weather History & Observations

Time (PDT) Temp. Dew Point Humidity Pressure Visibility Wind Dir Wind Speed Gust Speed Precip Events Conditions
12:53 AM 63.0 °F 26.1 °F 25% 30.12 in 10.0 mi West 3.5 mph - N/A   Clear
1:53 AM 57.9 °F 32.0 °F 37% 30.12 in 10.0 mi Calm Calm - N/A   Clear
3:53 AM 57.9 °F 27.0 °F 31% 30.11 in 10.0 mi Calm Calm - N/A   Clear
4:53 AM 55.9 °F 26.1 °F 32% 30.11 in 10.0 mi North 3.5 mph - N/A   Clear
5:53 AM 55.9 °F 30.9 °F 39% 30.11 in 10.0 mi Calm Calm - N/A   Clear
6:53 AM 57.0 °F 27.0 °F 32% 30.12 in 10.0 mi Calm Calm - N/A   Clear
7:53 AM 61.0 °F 24.1 °F 24% 30.12 in 10.0 mi Calm Calm - N/A   Clear
8:53 AM 60.1 °F 30.9 °F 33% 30.14 in 10.0 mi Calm Calm - N/A   Clear
9:53 AM 66.9 °F 28.0 °F 23% 30.14 in 10.0 mi North 4.6 mph - N/A   Clear
10:53 AM 75.0 °F 18.0 °F 12% 30.14 in 10.0 mi Calm Calm - N/A   Clear
11:53 AM 77.0 °F 19.0 °F 11% 30.13 in 10.0 mi SW 8.1 mph - N/A   Clear
12:53 PM 79.0 °F 12.9 °F 8% 30.11 in 10.0 mi South 5.8 mph - N/A   Clear
1:53 PM 80.1 °F 12.9 °F 8% 30.08 in 10.0 mi Variable 6.9 mph - N/A   Clear
2:53 PM 81.0 °F 14.0 °F 8% 30.06 in 10.0 mi West 8.1 mph - N/A   Clear
3:53 PM 82.0 °F 15.1 °F 8% 30.04 in 10.0 mi SW 8.1 mph - N/A   Clear
4:53 PM 81.0 °F 15.1 °F 8% 30.03 in 10.0 mi SW 10.4 mph - N/A   Clear
5:53 PM 80.1 °F 15.1 °F 9% 30.03 in 10.0 mi West 15.0 mph - N/A   Clear
6:53 PM 75.9 °F 17.1 °F 11% 30.04 in 10.0 mi WNW 10.4 mph - N/A   Clear
7:53 PM 73.0 °F 19.0 °F 13% 30.04 in 10.0 mi WNW 4.6 mph - N/A   Clear
8:53 PM 72.0 °F 19.9 °F 14% 30.05 in 10.0 mi Variable 3.5 mph - N/A   Clear
9:53 PM 70.0 °F 23.0 °F 17% 30.05 in 10.0 mi Calm Calm - N/A   Clear
10:53 PM 68.0 °F 26.1 °F 21% 30.06 in 10.0 mi NNW 4.6 mph - N/A   Clear
11:53 PM 64.0 °F 27.0 °F 25% 30.05 in 10.0 mi WNW 5.8 mph - N/A   Clear
12:53 AM 62.1 °F 30.9 °F 31% 30.04 in 10.0 mi WNW 6.9 mph - N/A   Clear